Wind_Speed
7 7 7 8 8 8 8 8 9 9 8 9 8 9 9 9 9 9 9 9 9 9 9 9 10 10 10 11 10 10 11 11 11 10 10 10 11 10 10 10 10 10 10 9
8 7 8 8 8 8 9 9 10 9 8 9 9 9 10 9 9 9 9 9 10 10 10 9 10 11 11 12 11 11 11 12 11 10 10 10 11 11 10 11 10 9 9 9
9 8 8 8 8 8 9 9 9 9 9 9 9 10 9 10 10 11 11 10 10 10 11 10 11 11 11 12 12 12 12 12 12 11 11 11 11 11 11 11 10 9 9 9
10 9 8 9 9 9 9 9 9 9 9 9 10 11 10 10 11 11 12 12 12 12 12 12 12 12 12 12 12 12 12 12 13 12 12 12 12 11 11 10 10 9 9 9
10 10 10 10 9 10 9 9 9 10 10 10 11 12 12 12 11 12 12 13 13 13 13 13 13 13 13 13 12 13 12 12 13 13 12 12 12 12 12 11 10 10 10 9
10 11 11 10 10 10 10 10 10 10 10 10 10 12 13 13 13 13 13 13 14 14 14 14 14 14 13 13 13 13 13 13 13 13 13 12 12 12 11 11 10 10 10 9
11 12 11 11 11 11 11 11 10 10 10 10 12 13 14 13 14 14 14 15 15 15 15 14 14 14 14 14 14 13 13 13 13 13 12 12 12 12 11 11 11 10 10 10
12 12 12 13 13 13 12 12 11 10 9 10 13 14 14 14 15 15 15 15 15 16 16 15 15 15 15 14 14 14 14 13 13 13 13 13 13 12 12 12 11 11 11 10
13 14 14 14 14 14 14 14 13 13 12 11 14 16 16 16 16 16 15 15 16 16 16 16 16 16 16 15 14 14 14 14 14 14 14 14 13 13 13 12 13 12 11 12
15 15 15 15 16 16 15 15 14 15 14 14 14 15 18 17 17 17 17 16 17 17 17 17 17 16 16 15 15 15 15 15 15 15 15 15 15 14 14 14 13 13 12 13
17 17 17 16 16 16 16 17 17 17 16 16 15 16 18 19 18 17 18 18 18 18 18 17 17 17 16 15 15 15 15 15 15 15 15 15 16 16 15 14 14 14 14 14
17 18 18 18 17 17 18 18 18 18 17 17 17 18 19 20 20 19 18 18 18 18 18 18 18 18 17 17 17 16 16 16 15 15 15 16 16 16 16 16 16 16 15 15
18 19 18 19 19 18 18 18 18 18 19 19 19 20 20 21 21 19 19 19 18 18 18 19 19 19 19 18 18 18 17 17 17 17 16 16 17 17 17 17 17 17 16 16
21 21 20 20 19 18 18 19 19 20 20 20 20 20 22 22 21 20 20 19 19 18 19 19 19 20 20 20 19 19 18 18 18 18 18 18 18 18 18 17 18 18 18 18
23 23 22 22 22 21 21 20 20 21 22 22 21 21 22 23 23 22 22 21 20 20 20 21 21 21 21 21 20 20 20 20 19 19 19 19 18 19 19 18 19 19 19 19
24 24 24 23 23 23 23 22 22 23 23 24 23 22 22 24 24 23 23 23 22 21 22 22 23 23 22 22 21 21 21 21 20 20 20 20 19 19 19 19 19 19 19 20
24 24 25 24 24 25 25 23 24 24 24 24 24 24 23 24 24 24 25 25 25 24 23 23 23 24 24 23 23 22 22 23 22 22 22 22 21 20 20 20 20 20 20 20
25 25 26 26 25 27 26 24 25 26 26 25 25 25 25 25 26 26 26 27 26 25 25 25 25 25 24 24 24 24 24 24 24 23 23 23 22 22 21 21 20 20 20 20
26 26 26 26 27 27 26 25 25 25 26 26 26 27 27 27 27 28 27 27 28 27 27 27 27 27 26 25 25 25 25 25 25 24 24 24 24 23 22 21 21 20 20 20
27 27 28 28 28 28 27 25 26 26 27 26 26 27 28 28 29 29 28 28 28 28 28 28 28 28 27 27 27 26 25 25 25 25 24 24 24 23 22 21 21 21 20 20
27 28 29 29 29 29 28 28 27 27 27 27 27 28 29 29 30 30 30 30 29 28 29 29 29 29 29 28 28 27 26 25 25 26 25 24 24 23 22 22 22 21 21 21
28 29 29 29 30 30 28 27 28 28 28 28 28 29 30 30 30 30 31 31 30 30 29 30 30 30 29 29 28 27 27 26 26 26 25 24 24 23 23 22 22 21 21 21
28 28 28 28 29 29 28 28 29 29 29 29 29 30 30 30 31 30 31 31 31 31 30 30 30 30 29 29 28 28 27 26 26 26 25 25 24 23 23 23 22 22 21 21
29 29 29 28 28 29 28 29 30 30 30 30 30 30 31 31 31 31 31 31 31 31 31 30 30 30 30 29 28 28 28 27 26 26 25 25 25 24 23 23 23 23 23 22
29 30 30 30 29 30 29 29 29 30 31 31 30 30 32 32 32 32 31 31 31 30 30 30 30 29 29 29 28 28 28 27 26 26 26 26 25 25 24 24 24 24 24 24
26 28 30 30 30 31 30 30 31 31 31 32 32 32 32 32 32 32 31 31 30 31 31 30 30 29 29 29 28 28 28 27 26 26 26 26 26 26 25 25 24 25 25 25
Wind_Direction
251 245 243 241 240 242 247 253 261 267 272 272 275 279 279 276 277 277 279 275 273 275 276 275 279 281 283 284 285 287 287 288 289 290 292 295 298 301 302 300 298 298 299 297
247 246 244 243 244 246 249 253 262 268 274 274 278 280 278 280 282 280 278 276 275 277 282 278 281 284 286 287 286 285 287 286 287 287 288 292 298 299 302 302 296 295 295 297
244 243 244 244 243 244 247 252 260 267 273 276 279 280 276 278 280 279 279 279 278 279 281 282 283 284 287 287 285 283 286 285 285 285 284 286 292 297 302 303 297 292 294 295
243 246 246 247 244 243 248 254 259 267 273 278 282 285 282 283 280 278 278 279 280 280 279 280 283 287 286 286 286 283 284 284 282 281 281 284 287 292 297 298 296 294 297 296
242 247 249 247 245 248 249 253 259 267 274 279 281 284 288 287 286 282 280 279 278 278 278 279 281 285 286 285 285 283 282 283 281 281 280 281 285 285 287 291 291 290 293 295
246 250 250 249 251 255 253 254 259 266 272 275 278 280 284 287 285 282 280 278 277 276 275 276 278 280 282 282 282 280 280 279 279 277 279 278 283 283 282 285 286 287 286 284
250 253 255 255 257 257 254 255 258 265 270 278 280 279 279 285 286 284 283 281 279 278 277 275 274 275 278 280 280 278 276 276 276 276 277 277 279 281 281 282 281 280 281 279
252 257 256 258 259 258 257 256 253 256 262 271 279 280 279 281 285 285 284 282 279 279 279 277 276 275 276 277 279 278 275 274 274 276 276 276 278 278 278 280 278 276 275 276
254 258 256 258 259 259 259 257 258 255 258 258 268 278 280 281 282 282 283 283 280 277 277 277 275 275 275 276 276 277 276 273 273 275 274 276 276 275 276 276 276 275 276 277
255 257 258 260 260 258 258 258 256 255 257 261 268 275 281 283 282 282 281 281 280 277 275 276 276 276 276 275 275 276 278 275 273 274 274 274 273 273 273 274 272 275 276 275
256 258 261 261 260 261 258 258 259 258 259 262 262 267 275 282 284 283 282 279 277 276 275 274 273 274 275 276 275 276 278 275 274 273 274 273 271 271 272 273 274 275 275 274
257 258 260 263 261 260 258 257 259 259 260 263 264 266 273 278 283 282 282 282 279 278 274 271 273 274 273 275 276 275 276 275 275 274 274 273 271 270 271 273 275 277 276 275
256 256 260 263 263 260 260 261 260 259 260 262 264 269 274 276 278 279 281 282 280 277 276 273 273 273 273 273 275 275 274 274 273 273 275 274 272 272 273 273 274 275 276 276
256 255 257 261 263 263 262 261 261 260 259 262 264 268 273 276 278 277 278 281 281 277 276 275 275 275 275 275 273 272 272 272 272 272 272 274 274 274 273 274 273 275 275 274
257 256 256 257 257 258 260 262 263 262 262 263 266 268 271 275 278 277 278 278 280 277 274 274 274 274 275 275 274 272 270 268 269 270 271 272 273 275 274 274 273 275 277 276
256 257 257 256 257 257 259 262 264 266 265 264 265 266 268 272 275 275 277 278 279 278 276 274 273 272 273 274 274 273 271 268 268 270 270 271 272 275 276 276 274 274 276 277
259 257 257 258 258 258 260 264 266 267 267 267 266 266 267 270 274 276 277 276 277 277 276 274 273 272 272 272 272 271 270 269 269 270 269 270 272 274 275 275 274 273 275 276
261 260 259 259 259 260 264 265 267 268 267 267 268 267 267 269 272 273 276 276 276 276 275 274 273 273 272 271 271 271 270 269 269 270 269 270 270 272 273 272 272 271 274 274
260 261 260 259 260 263 265 266 267 268 267 267 268 267 268 270 271 271 273 274 276 276 275 274 273 273 272 272 271 270 269 268 268 268 268 267 268 269 270 270 269 269 272 273
259 260 260 259 259 261 265 265 267 268 268 268 268 268 270 271 272 271 272 274 274 273 274 273 272 272 272 271 270 269 267 266 266 265 265 266 266 267 267 268 268 268 270 271
260 260 261 260 261 262 265 267 267 266 269 270 269 269 271 272 274 273 273 273 273 273 272 272 272 271 271 271 270 269 268 266 265 264 264 265 265 265 265 267 268 268 268 270
260 261 261 261 261 261 265 266 267 269 270 272 271 270 270 272 273 273 272 272 272 272 272 272 272 271 270 269 268 267 267 266 264 264 264 264 265 265 264 266 267 267 268 270
259 260 262 262 263 265 266 265 267 268 269 270 272 272 272 273 273 273 272 271 271 272 272 272 271 270 268 268 267 266 266 265 263 262 262 263 263 265 265 265 266 266 267 269
258 259 260 261 262 264 265 266 266 268 268 268 269 270 271 273 275 275 272 271 272 272 272 271 270 269 267 266 265 265 265 264 263 261 261 261 262 264 265 264 265 265 266 269
258 259 260 262 262 263 264 266 268 267 267 268 270 272 272 273 275 275 273 273 273 272 272 271 269 268 267 266 264 264 265 263 260 260 260 261 262 263 264 265 264 264 266 269
259 261 263 265 265 266 266 266 267 268 268 269 271 271 273 274 275 274 273 272 272 271 271 270 269 267 266 265 264 263 263 262 259 259 260 262 263 264 265 265 265 265 265 267
Height
5848 5850 5850 5851 5852 5853 5853 5854 5855 5855 5855 5856 5856 5856 5856 5857 5857 5857 5858 5858 5858 5858 5859 5859 5859 5859 5859 5860 5860 5860 5860 5860 5860 5860 5860 5859 5859 5859 5858 5858 5857 5857 5856 5856
5847 5848 5849 5849 5850 5851 5852 5853 5854 5854 5854 5854 5854 5854 5855 5855 5855 5856 5856 5856 5856 5857 5857 5857 5857 5857 5857 5858 5858 5858 5858 5858 5858 5858 5858 5857 5857 5857 5856 5856 5855 5855 5854 5854
5845 5847 5847 5848 5849 5850 5850 5851 5852 5852 5852 5852 5853 5853 5853 5854 5854 5854 5854 5854 5854 5855 5855 5855 5855 5855 5855 5855 5855 5855 5855 5855 5855 5855 5855 5855 5855 5855 5854 5854 5853 5853 5853 5852
5843 5844 5845 5846 5847 5848 5849 5850 5850 5850 5851 5851 5851 5851 5851 5851 5852 5852 5852 5852 5852 5852 5852 5853 5853 5853 5853 5853 5853 5853 5853 5853 5853 5853 5853 5853 5853 5853 5852 5852 5851 5851 5851 5851
5841 5842 5843 5844 5845 5846 5847 5848 5848 5849 5849 5849 5849 5849 5850 5849 5849 5850 5850 5850 5850 5850 5850 5850 5850 5850 5850 5850 5850 5850 5850 5850 5850 5850 5850 5850 5850 5850 5850 5849 5849 5849 5849 5849
5839 5840 5841 5842 5843 5844 5845 5846 5846 5846 5847 5848 5848 5848 5848 5847 5847 5847 5847 5847 5847 5847 5847 5847 5847 5847 5847 5847 5847 5847 5847 5847 5847 5847 5847 5847 5847 5847 5847 5847 5847 5847 5847 5847
5837 5838 5839 5840 5841 5842 5843 5844 5845 5845 5845 5846 5846 5845 5846 5844 5844 5844 5844 5844 5844 5844 5844 5844 5844 5844 5844 5844 5844 5844 5845 5844 5844 5844 5844 5844 5844 5844 5844 5844 5844 5844 5844 5844
5834 5836 5837 5838 5839 5840 5840 5842 5843 5843 5843 5843 5842 5842 5843 5842 5842 5841 5841 5841 5841 5841 5841 5841 5841 5841 5841 5841 5841 5841 5841 5841 5841 5841 5841 5842 5841 5841 5841 5841 5842 5842 5841 5841
5832 5833 5834 5834 5835 5837 5837 5838 5839 5840 5839 5840 5840 5840 5839 5839 5839 5839 5838 5838 5838 5838 5838 5837 5837 5837 5837 5838 5838 5838 5838 5838 5838 5838 5838 5838 5838 5838 5838 5838 5838 5838 5838 5838
5828 5830 5831 5831 5832 5833 5835 5835 5835 5836 5836 5837 5838 5837 5836 5835 5835 5835 5835 5834 5834 5834 5834 5834 5834 5834 5834 5834 5834 5834 5834 5834 5834 5834 5834 5834 5835 5835 5835 5835 5835 5835 5835 5835
5825 5826 5827 5828 5829 5830 5831 5832 5831 5832 5833 5833 5834 5835 5832 5831 5832 5831 5831 5830 5830 5830 5830 5829 5830 5830 5830 5830 5830 5830 5830 5830 5830 5830 5830 5830 5831 5831 5831 5831 5831 5831 5831 5831
5820 5821 5822 5824 5825 5825 5826 5827 5828 5828 5828 5829 5829 5832 5828 5828 5827 5827 5826 5826 5825 5825 5825 5825 5825 5826 5826 5826 5826 5826 5826 5826 5826 5826 5826 5826 5826 5827 5827 5827 5827 5827 5827 5827
5816 5817 5818 5818 5821 5821 5821 5822 5823 5824 5824 5824 5825 5827 5824 5823 5823 5823 5822 5821 5821 5821 5821 5821 5821 5821 5821 5821 5821 5821 5821 5822 5822 5822 5822 5822 5822 5822 5823 5823 5823 5823 5823 5823
5811 5812 5814 5815 5815 5815 5816 5817 5818 5818 5818 5819 5820 5820 5819 5818 5818 5818 5817 5817 5816 5816 5816 5816 5816 5816 5816 5816 5816 5816 5817 5817 5817 5817 5817 5818 5818 5818 5818 5818 5818 5818 5818 5818
5805 5806 5807 5808 5809 5810 5810 5811 5812 5813 5813 5814 5815 5815 5814 5813 5812 5812 5812 5812 5811 5811 5811 5811 5811 5811 5811 5811 5811 5811 5811 5811 5812 5812 5812 5813 5813 5813 5813 5813 5813 5813 5813 5813
5799 5800 5801 5802 5803 5803 5804 5806 5806 5807 5807 5808 5808 5809 5809 5808 5807 5806 5806 5806 5805 5805 5805 5805 5805 5805 5805 5805 5805 5805 5805 5806 5806 5806 5806 5807 5807 5807 5807 5807 5807 5807 5807 5807
5792 5793 5794 5795 5797 5796 5797 5800 5800 5801 5801 5801 5801 5803 5802 5802 5801 5801 5800 5800 5799 5799 5799 5799 5798 5798 5798 5798 5799 5799 5799 5799 5800 5800 5800 5800 5801 5801 5801 5801 5801 5801 5801 5801
5785 5786 5787 5788 5790 5789 5794 5794 5794 5794 5794 5795 5795 5795 5795 5795 5795 5794 5794 5793 5792 5792 5792 5792 5791 5791 5791 5791 5792 5792 5792 5793 5793 5793 5794 5794 5794 5795 5795 5795 5795 5795 5795 5795
5778 5779 5780 5781 5781 5782 5785 5787 5786 5786 5786 5787 5787 5787 5787 5788 5787 5787 5786 5785 5785 5785 5785 5784 5784 5784 5784 5784 5784 5784 5785 5785 5786 5786 5787 5787 5788 5788 5788 5788 5789 5789 5789 5789
5771 5772 5773 5773 5773 5775 5778 5779 5779 5780 5779 5780 5779 5779 5780 5779 5779 5779 5778 5778 5778 5777 5777 5777 5776 5776 5776 5776 5776 5776 5777 5778 5778 5779 5780 5780 5780 5781 5782 5782 5782 5783 5783 5783
5764 5764 5765 5765 5765 5766 5770 5771 5771 5772 5773 5772 5772 5771 5772 5771 5771 5771 5770 5770 5769 5769 5769 5768 5768 5768 5768 5768 5768 5768 5769 5770 5771 5771 5772 5773 5773 5774 5775 5776 5776 5776 5777 5777
5756 5756 5757 5757 5758 5761 5762 5762 5763 5763 5763 5763 5763 5763 5763 5763 5762 5762 5761 5761 5761 5761 5760 5760 5759 5759 5759 5760 5760 5761 5761 5762 5763 5763 5765 5766 5766 5767 5768 5769 5769 5769 5770 5770
5747 5749 5749 5750 5752 5753 5752 5753 5754 5754 5755 5755 5754 5754 5754 5754 5754 5753 5753 5752 5752 5752 5751 5751 5751 5751 5751 5751 5752 5752 5753 5754 5755 5756 5757 5758 5759 5760 5761 5762 5762 5763 5764 5764
5740 5740 5741 5741 5742 5743 5744 5744 5745 5745 5745 5745 5745 5745 5745 5745 5745 5744 5744 5743 5743 5743 5742 5742 5742 5742 5742 5743 5743 5744 5745 5746 5747 5748 5750 5751 5752 5753 5754 5755 5755 5756 5757 5757
5732 5732 5732 5733 5734 5734 5735 5735 5736 5736 5736 5736 5736 5736 5736 5736 5736 5735 5734 5734 5734 5733 5733 5733 5733 5733 5734 5735 5735 5736 5736 5737 5739 5740 5742 5743 5744 5746 5746 5747 5748 5749 5750 5750
5724 5725 5725 5725 5726 5726 5726 5726 5726 5726 5726 5727 5727 5727 5726 5726 5726 5725 5725 5725 5725 5724 5724 5724 5724 5725 5725 5726 5727 5728 5728 5729 5731 5732 5734 5735 5736 5738 5739 5739 5740 5741 5742 5742